Tiempo atmosférico en la estación meteorológica de Lugo, Lugo (442 m.)



Fecha
DESCASC
Temp. máxima en grados centígrados (hora)
DESCASC
Temp. mínima en grados centígrados (hora)
DESCASC
Temp. media en grados centígrados
DESCASC
Racha de viento máxima en m/sg (hora)
DESCASC
Velocidad máxima media en intervalos de 10 minutos(hora)
DESCASC
Precipitaciones diarias en mm
DESCASC
Precipitaciones de 00:00 a 06:00 en mm
DESCASC
Precipitaciones de 06:00 a 12:00 en mm
DESCASC
Precipitaciones de 12:00 a 18:00 en mm
DESCASC
Precipitaciones de 18:00 a 24:00 en mm
DESCASC
03-12-2020 9.1 (14:20) 2.1 (07:50) 5.6 14.44 (22:40) 5.83 (20:50) 4.6 0 0 0.2 4.4
02-12-2020 10.4 (15:50) 6.1 (23:59) 8.2 9.17 (14:30) 3.89 (14:00) 0.8 0.8 0 0 0
01-12-2020 10.3 (17:00) 4.3 (03:30) 7.3 4.72 (22:10) 1.67 (22:00) 0 0 0 0 0
30-11-2020 14.2 (15:50) 2.8 (00:00) 8.5 4.72 (15:10) 2.22 (16:20) 0 0 0 0 0
29-11-2020 14.6 (15:30) 4.2 (00:00) 9.4 2.78 (13:10) 1.11 (16:00) 0 0 0 0 0
28-11-2020 13 (17:00) 1.7 (00:00) 7.4 4.44 (21:00) 1.94 (06:00) 0.2 0 0 0.2 0
27-11-2020 14.3 (17:00) 2.8 (00:00) 8.6 3.33 (11:00) 1.67 (11:00) 0 0 0 0 0
26-11-2020 14.1 (15:20) 6.5 (00:00) 10.3 5.28 (15:00) 2.78 (15:10) 1.6 1.6 0 0 0
25-11-2020 10.3 (00:00) 7.2 (00:00) 8.8 6.11 (01:50) 2.5 (01:50) 16 8.6 1.2 1 5.2
24-11-2020 13.3 (16:20) 1.9 (00:00) 7.6 6.39 (13:00) 1.94 (09:10) 1.8 0 0 0 1.8
23-11-2020 13.2 (16:30) 0.8 (00:00) 7 2.5 (15:10) 1.39 (23:30) 0.2 0 0 0.2 0
22-11-2020 15.9 (17:10) 1.9 (00:00) 8.9 3.89 (12:10) 2.5 (12:10) 0 0 0 0 0
21-11-2020 15.7 (17:10) 3.4 (00:00) 9.5 2.78 (12:00) 1.39 (05:20) 0 0 0 0 0
20-11-2020 14.1 (15:40) 6.3 (00:00) 10.2 5.83 (18:20) 3.33 (18:40) 0 0 0 0 0
19-11-2020 13.3 (12:10) 9.6 (00:00) 11.5 8.89 (16:20) 3.89 (16:10) 0 0 0 0 0
18-11-2020 20.2 (17:10) 13 (00:00) 16.6 7.22 (14:10) 2.78 (15:50) 0 0 0 0 0
17-11-2020 19.4 (17:10) 2.9 (00:00) 11.1 4.17 (20:20) 2.22 (05:00) 0 0 0 0 0
16-11-2020 14.5 (17:10) 6.3 (00:00) 10.4 1.94 (12:10) 0.83 (12:10) 0.2 0 0.2 0 0
15-11-2020 16.6 (11:00) 10.2 (00:00) 13.4 10.56 (10:20) 5 (12:50) 9.4 0.8 3.8 4.6 0.2
14-11-2020 16.8 (13:10) 9.6 (00:00) 13.2 7.22 (21:30) 2.22 (10:20) 1.2 0 0 0 1.2
13-11-2020 17.8 (17:30) 6.8 (00:00) 12.3 5.28 (15:30) 1.94 (10:20) 0 0 0 0 0
12-11-2020 17.9 (15:40) 11.1 (00:00) 14.5 7.22 (14:00) 1.67 (13:00) 0 0 0 0 0
11-11-2020 14.3 (14:50) 6 (00:00) 10.2 5.83 (11:30) 1.94 (10:50) 0 0 0 0 0
10-11-2020 16.5 (17:30) 6.9 (00:00) 11.7 4.17 (11:40) 1.67 (11:40) 0 0 0 0 0
09-11-2020 14.7 (14:30) 7.5 (00:00) 11.1 7.5 (15:00) 3.33 (16:20) 7.2 2.8 4 0.4 0
08-11-2020 15.9 (13:50) 10.5 (00:00) 13.2 9.72 (09:30) 3.61 (08:40) 17.4 0.2 16.4 0 0.8
07-11-2020 16.3 (13:30) 8.6 (00:00) 12.4 9.72 (14:30) 2.22 (12:20) 0.6 0 0.2 0.2 0.2
06-11-2020 18 (14:30) 9.7 (00:00) 13.8 8.06 (09:10) 3.33 (03:50) 9.2 0 0.2 0 9
05-11-2020 12.2 (15:50) 6.7 (00:00) 9.4 7.5 (01:50) 3.33 (00:30) 0 0 0 0 0

Gráficas

Temp. máximas Temp. mínimas Temp. medias Precipitaciones Rachas de viento máximas Velocidades máximas media en intervalos de 10 minutos

Datos horarios

Fecha y hora oficial Temperatura (ºC) Velocidad del viento (km/h) Dirección del viento Racha (km/h) Dirección de racha Precipitación (mm) Presión (hPa) Tendencia (hPa) Humedad (%)
2020-12-04 23:00:00 0.5 2 Sur 8 Sudeste 0.2 -- -- 98
2020-12-04 22:00:00 0.5 2 Sudeste 6 Sudeste 0.4 -- -- 97
2020-12-04 21:00:00 0.6 0 Calma 10 Oeste 0.8 -- -- 97
2020-12-04 20:00:00 1.2 3 Oeste 7 Oeste 1.2 -- -- 97
2020-12-04 19:00:00 1.5 0 Calma 7 Noroeste 1 -- -- 96
2020-12-04 18:00:00 1.3 3 Oeste 10 Oeste 1.4 -- -- 94
2020-12-04 17:00:00 2.6 0 Calma 18 Oeste 0.6 -- -- 94
2020-12-04 16:00:00 2.9 6 Oeste 14 Oeste 1.4 -- -- 94
2020-12-04 15:00:00 2.2 0 Calma 11 Oeste 1.4 -- -- 96
2020-12-04 14:00:00 1.3 0 Calma 6 Sudeste 1 -- -- 97
2020-12-04 13:00:00 1.7 0 Calma 6 Oeste 1.4 -- -- 96
2020-12-04 12:00:00 0.9 3 Oeste 14 Oeste 1 -- -- 95
2020-12-04 11:00:00 1.6 2 Sudoeste 21 Oeste 1.2 -- -- 97
2020-12-04 10:00:00 1.1 4 Oeste 13 Noroeste 0.4 -- -- 97
2020-12-04 09:00:00 0.5 3 Oeste 15 Noroeste 0.4 -- -- 96
2020-12-04 08:00:00 1.6 2 Sudoeste 14 Sudoeste 1.6 -- -- 96
2020-12-04 07:00:00 1.4 2 Oeste 21 Oeste 0.6 -- -- 96
2020-12-04 06:00:00 0.8 0 Calma 27 Oeste 1.6 -- -- 95
2020-12-04 05:00:00 2.4 10 Oeste 26 Oeste 0 -- -- 93
2020-12-04 04:00:00 3 8 Oeste 24 Noroeste 0.6 -- -- 94
2020-12-04 03:00:00 3.3 6 Oeste 26 Sudoeste 1.4 -- -- 94
2020-12-04 02:00:00 3.7 8 Oeste 36 Oeste 0.6 -- -- 94
2020-12-04 01:00:00 3.2 14 Oeste 39 Oeste 2 -- -- 93
2020-12-04 00:00:00 5 14 Oeste 35 Oeste 0 -- -- 90
2020-12-03 23:00:00 5.5 9 Noroeste 52 Noroeste 1 -- -- 91
2020-12-03 22:00:00 6.7 9 Oeste 32 Noroeste 1.6 -- -- 93
2020-12-03 21:00:00 7.7 17 Oeste 44 Noroeste 1.4 -- -- 90
2020-12-03 20:00:00 8.8 17 Oeste 40 Oeste 0 -- -- 87
2020-12-03 19:00:00 8.1 14 Oeste 40 Oeste 0.4 -- -- 93
2020-12-03 18:00:00 8 17 Oeste 45 Sudoeste 0 -- -- 91
2020-12-03 17:00:00 8.4 18 Oeste 40 Oeste 0 -- -- 87
2020-12-03 16:00:00 8.4 13 Oeste 44 Oeste 0.2 -- -- 91
2020-12-03 15:00:00 8.8 9 Sudoeste 35 Sudoeste 0 -- -- 87
2020-12-03 14:00:00 8.3 11 Oeste 22 Oeste 0 -- -- 88
2020-12-03 13:00:00 6.3 3 Sudoeste 11 Sudeste 0 -- -- 96
2020-12-03 12:00:00 5.2 4 Sur 12 Sudeste 0 -- -- 97
2020-12-03 11:00:00 3.3 7 Sudeste 18 Sudeste 0 -- -- 98
2020-12-03 10:00:00 2.7 6 Sudeste 16 Sudeste 0 -- -- 98
2020-12-03 09:00:00 2.4 8 Sudeste 16 Sudeste 0 -- -- 98
2020-12-03 08:00:00 2.1 5 Sudeste 11 Sudeste 0 -- -- 98
2020-12-03 07:00:00 2.5 4 Sudeste 11 Este 0 -- -- 97
2020-12-03 06:00:00 2.7 0 Calma 6 Sur 0 -- -- 97
2020-12-03 05:00:00 2.8 2 Este 12 Sudeste 0 -- -- 97
2020-12-03 04:00:00 3 2 Sudeste 7 Sudeste 0 -- -- 97
2020-12-03 03:00:00 3 0 Calma 3 Noroeste 0 -- -- 95
2020-12-03 02:00:00 4.2 0 Calma 5 Norte 0 -- -- 95
2020-12-03 01:00:00 5.2 3 Nordeste 17 Norte 0 -- -- 95
2020-12-03 00:00:00 6.1 5 Norte 13 Norte 0 -- -- 93
2020-12-02 23:00:00 6.4 3 Norte 11 Noroeste 0 -- -- 89
2020-12-02 22:00:00 7.5 4 Norte 13 Norte 0 -- -- 87
2020-12-02 21:00:00 7.6 5 Norte 12 Norte 0 -- -- 86
2020-12-02 20:00:00 7.2 0 Calma 10 Norte 0 -- -- 86
2020-12-02 19:00:00 7.5 3 Norte 13 Norte 0 -- -- 83
2020-12-02 18:00:00 8.5 5 Norte 18 Norte 0 -- -- 78
2020-12-02 17:00:00 9.4 5 Nordeste 25 Norte 0 -- -- 73
2020-12-02 16:00:00 10.3 12 Nordeste 26 Nordeste 0 -- -- 68
2020-12-02 15:00:00 10 10 Nordeste 33 Este 0 -- -- 68
2020-12-02 14:00:00 9.5 14 Nordeste 30 Nordeste 0 -- -- 72
2020-12-02 13:00:00 9.1 10 Nordeste 22 Nordeste 0 -- -- 71
2020-12-02 12:00:00 8.7 6 Nordeste 15 Norte 0 -- -- 82
2020-12-02 11:00:00 -- 6 Norte 14 Norte 0 -- -- --
2020-12-02 10:00:00 7 6 Norte 14 Norte 0 -- -- 91
2020-12-02 09:00:00 7 4 Norte 15 Nordeste 0 -- -- 92
2020-12-02 08:00:00 7.2 3 Norte 12 Norte 0 -- -- 93
2020-12-02 07:00:00 7.8 3 Norte 19 Norte 0 -- -- 93
2020-12-02 06:00:00 8.4 6 Norte 20 Norte 0.2 -- -- 95
2020-12-02 05:00:00 8.6 4 Norte 9 Norte 0.4 -- -- 96
2020-12-02 04:00:00 8.1 0 Calma 5 Noroeste 0.2 -- -- 95
2020-12-02 03:00:00 7.8 0 Calma 6 Noroeste 0 -- -- 94
2020-12-02 02:00:00 8.1 3 Norte 7 Norte 0 -- -- 94
2020-12-02 01:00:00 7.5 3 Noroeste 5 Noroeste 0 -- -- 92
2020-12-02 00:00:00 7.5 0 Calma 8 Noroeste 0 -- -- 91
2020-12-01 23:00:00 7.6 3 Norte 17 Norte 0 -- -- 91
2020-12-01 22:00:00 8.2 6 Norte 16 Norte 0 -- -- 89
2020-12-01 21:00:00 8.1 4 Norte 14 Norte 0 -- -- 83
2020-12-01 20:00:00 8.8 4 Norte 16 Norte 0 -- -- 81
2020-12-01 19:00:00 9.3 5 Nordeste 16 Nordeste 0 -- -- 80
2020-12-01 18:00:00 9.6 3 Noroeste 9 Nordeste 0 -- -- 84
2020-12-01 17:00:00 10.3 2 Norte 9 Norte 0 -- -- 87
2020-12-01 16:00:00 9.3 2 Noroeste 5 Oeste 0 -- -- 96
2020-12-01 15:00:00 7.3 0 Calma 6 Nordeste 0 -- -- 97
2020-12-01 14:00:00 6.6 0 Calma 4 Oeste 0 -- -- 97
2020-12-01 13:00:00 6 0 Calma 5 Sudeste 0 -- -- 98
2020-12-01 12:00:00 6 0 Calma 5 Sur 0 -- -- 98
2020-12-01 11:00:00 5.2 0 Calma 4 Oeste 0 -- -- 98
2020-12-01 10:00:00 4.9 0 Calma 5 Sur 0 -- -- 98
2020-12-01 09:00:00 4.6 0 Calma 4 Nordeste 0 -- -- 98
2020-12-01 08:00:00 4.9 0 Calma 4 Este 0 -- -- 98
2020-12-01 07:00:00 4.9 0 Calma 4 Nordeste 0 -- -- 98
2020-12-01 06:00:00 4.9 0 Calma 4 Este 0 -- -- 98
2020-12-01 05:00:00 4.7 0 Calma 4 Nordeste 0 -- -- 98
2020-12-01 04:00:00 4.4 2 Sudeste 6 Sudeste 0 -- -- 98
2020-12-01 03:00:00 4.5 3 Sudeste 5 Sudeste 0 -- -- 98
2020-12-01 02:00:00 5.8 0 Calma 5 Noroeste 0 -- -- 97
2020-12-01 01:00:00 5.7 0 Calma 5 Noroeste 0 -- -- 97
2020-12-01 00:00:00 5.5 0 Calma 4 Noroeste 0 -- -- 96
2020-11-30 23:00:00 6.7 0 Calma 2 Noroeste 0 -- -- 95
2020-11-30 22:00:00 7.6 0 Calma 9 Oeste 0 -- -- 95
2020-11-30 21:00:00 8.3 3 Noroeste 8 Noroeste 0 -- -- 95
2020-11-30 20:00:00 8.7 3 Noroeste 11 Norte 0 -- -- 93
2020-11-30 19:00:00 9.7 5 Noroeste 16 Norte 0 -- -- 90
2020-11-30 18:00:00 11.2 5 Norte 16 Norte 0 -- -- 86
2020-11-30 17:00:00 13.6 5 Norte 17 Norte 0 -- -- 77
2020-11-30 16:00:00 14.1 6 Norte 17 Norte 0 -- -- 72
2020-11-30 15:00:00 14 3 Noroeste 9 Nordeste 0 -- -- 72
2020-11-30 14:00:00 12 4 Oeste 9 Noroeste 0 -- -- 82
2020-11-30 13:00:00 10.2 3 Oeste 6 Noroeste 0 -- -- 84
2020-11-30 12:00:00 8.5 0 Calma 5 Sudeste 0 -- -- 94
2020-11-30 11:00:00 5.3 2 Este 7 Sudeste 0 -- -- 97
2020-11-30 10:00:00 4.1 0 Calma 4 Oeste 0 -- -- 97
2020-11-30 09:00:00 2.8 0 Calma 4 Noroeste 0 -- -- 98
2020-11-30 08:00:00 3.6 2 Noroeste 5 Noroeste 0 -- -- 98
2020-11-30 07:00:00 3.7 4 Noroeste 9 Noroeste 0 -- -- 97
2020-11-30 06:00:00 4 0 Calma 6 Noroeste 0 -- -- 97
2020-11-30 05:00:00 4 0 Calma 5 Noroeste 0 -- -- 96
2020-11-30 04:00:00 4.4 0 Calma 6 Oeste 0 -- -- 96
2020-11-30 03:00:00 4.7 0 Calma 5 Sudeste 0 -- -- 96
2020-11-30 02:00:00 4.4 0 Calma 5 Noroeste 0 -- -- 96
2020-11-30 01:00:00 5 0 Calma 2 Norte 0 -- -- 95
2020-11-30 00:00:00 5.6 0 Calma 5 Noroeste 0 -- -- 94
2020-11-29 23:00:00 6.6 0 Calma 5 Noroeste 0 -- -- 94
2020-11-29 22:00:00 7.1 0 Calma 5 Norte 0 -- -- 94
2020-11-29 21:00:00 7.5 2 Noroeste 8 Noroeste 0 -- -- 92
2020-11-29 20:00:00 8.2 3 Noroeste 7 Noroeste 0 -- -- 91
2020-11-29 19:00:00 9 2 Noroeste 9 Nordeste 0 -- -- 88
2020-11-29 18:00:00 10.3 4 Norte 10 Nordeste 0 -- -- 84
2020-11-29 17:00:00 11.9 3 Noroeste 10 Norte 0 -- -- 78
2020-11-29 16:00:00 13.5 4 Norte 9 Norte 0 -- -- 73
2020-11-29 15:00:00 14.3 3 Sudeste 5 Sur 0 -- -- 62
2020-11-29 14:00:00 13 0 Calma 10 Sudeste 0 -- -- 76
2020-11-29 13:00:00 11.4 0 Calma 7 Sudeste 0 -- -- 83
2020-11-29 12:00:00 9.5 0 Calma 7 Este 0 -- -- 88
2020-11-29 11:00:00 6.8 0 Calma 3 Sudeste 0 -- -- 95
2020-11-29 10:00:00 5.5 0 Calma 3 Oeste 0 -- -- 96
2020-11-29 09:00:00 4.6 0 Calma 2 Nordeste 0 -- -- 96
2020-11-29 08:00:00 4.6 0 Calma 4 Noroeste 0 -- -- 96
2020-11-29 07:00:00 4.6 0 Calma 4 Noroeste 0 -- -- 95
2020-11-29 06:00:00 4.6 0 Calma 5 Noroeste 0 -- -- 94
2020-11-29 05:00:00 5.7 0 Calma 3 Este 0 -- -- 94
2020-11-29 04:00:00 5.4 3 Noroeste 5 Oeste 0 -- -- 92
2020-11-29 03:00:00 6.2 0 Calma 4 Oeste 0 -- -- 91
2020-11-29 02:00:00 7 0 Calma 5 Oeste 0 -- -- 90
2020-11-29 01:00:00 7.4 0 Calma 4 Oeste 0 -- -- 88
2020-11-29 00:00:00 8.2 3 Sudoeste 6 Noroeste 0 -- -- 84
2020-11-28 23:00:00 9 3 Noroeste 9 Sudeste 0 -- -- 78
2020-11-28 22:00:00 10.6 3 Este 13 Sudeste 0 -- -- 72
2020-11-28 21:00:00 10.9 7 Sudeste 16 Sudeste 0 -- -- 75
2020-11-28 20:00:00 10.7 4 Sur 14 Sudeste 0 -- -- 79
2020-11-28 19:00:00 10.8 3 Sur 15 Sudeste 0 -- -- 81
2020-11-28 18:00:00 11.9 2 Sudeste 5 Sudeste 0 -- -- 86
2020-11-28 17:00:00 13 0 Calma 4 Sudeste 0 -- -- 83
2020-11-28 16:00:00 12.6 0 Calma 6 Sudeste 0 -- -- 84
2020-11-28 15:00:00 11.3 2 Sudeste 6 Sudeste 0 -- -- 91
2020-11-28 14:00:00 9.7 0 Calma 6 Sudeste 0 -- -- 96
2020-11-28 13:00:00 7.4 5 Sudeste 8 Sudeste 0.2 -- -- 97
2020-11-28 12:00:00 4.4 2 Sudeste 7 Este 0 -- -- 98
2020-11-28 11:00:00 3 3 Sudeste 8 Sudeste 0 -- -- 99
2020-11-28 10:00:00 1.8 0 Calma 9 Sudeste 0 -- -- 98
2020-11-28 09:00:00 1.9 3 Sudeste 6 Sudeste 0 -- -- 98
2020-11-28 08:00:00 2.2 0 Calma 5 Este 0 -- -- 98
2020-11-28 07:00:00 2.1 2 Sudeste 12 Sudeste 0 -- -- 98
2020-11-28 06:00:00 2.8 7 Sudeste 14 Sudeste 0 -- -- 98
2020-11-28 05:00:00 3.6 3 Sudeste 6 Este 0 -- -- 97
2020-11-28 04:00:00 4 0 Calma 5 Sur 0 -- -- 97
2020-11-28 03:00:00 4.4 3 Sudeste 9 Sudeste 0 -- -- 97
2020-11-28 02:00:00 4.6 0 Calma 8 Sudeste 0 -- -- 97
2020-11-28 01:00:00 4.9 3 Sudeste 5 Sur 0 -- -- 96
2020-11-28 00:00:00 5.3 2 Sudeste 4 Sudeste 0 -- -- 96
2020-11-27 23:00:00 5.8 0 Calma 6 Sudeste 0 -- -- 95
2020-11-27 22:00:00 6.6 0 Calma 2 Sudeste 0 -- -- 94
2020-11-27 21:00:00 7.4 0 Calma 4 Noroeste 0 -- -- 93
2020-11-27 20:00:00 8.7 0 Calma 4 Noroeste 0 -- -- 91
2020-11-27 19:00:00 10.2 0 Calma 8 Nordeste 0 -- -- 88
2020-11-27 18:00:00 12.7 2 Nordeste 10 Nordeste 0 -- -- 82
2020-11-27 17:00:00 14.3 0 Calma 4 Sudeste 0 -- -- 72
2020-11-27 16:00:00 13.4 2 Sudeste 5 Sudeste 0 -- -- 74
2020-11-27 15:00:00 12.3 2 Este 6 Sudeste 0 -- -- 84
2020-11-27 14:00:00 10.5 2 Noroeste 5 Noroeste 0 -- -- 94
2020-11-27 13:00:00 8.1 0 Calma 4 Sudeste 0 -- -- 97
2020-11-27 12:00:00 6.9 0 Calma 6 Sudeste 0 -- -- 97
2020-11-27 11:00:00 4.2 6 Sudeste 12 Sudeste 0 -- -- 98
2020-11-27 10:00:00 3.6 0 Calma 4 Sudeste 0 -- -- 98
2020-11-27 09:00:00 2.8 0 Calma 5 Noroeste 0 -- -- 98
2020-11-27 08:00:00 3.3 2 Noroeste 5 Noroeste 0 -- -- 97
2020-11-27 07:00:00 4.1 0 Calma 2 Sudeste 0 -- -- 97
2020-11-27 06:00:00 4.6 0 Calma 5 Sudeste 0 -- -- 97
2020-11-27 05:00:00 5 0 Calma 6 Noroeste 0 -- -- 97
2020-11-27 04:00:00 6 0 Calma 5 Noroeste 0 -- -- 97
2020-11-27 03:00:00 5.7 0 Calma 6 Noroeste 0 -- -- 97
2020-11-27 02:00:00 6.3 0 Calma 4 Noroeste 0 -- -- 97
2020-11-27 01:00:00 7.3 0 Calma 6 Noroeste 0 -- -- 96
2020-11-27 00:00:00 6.7 3 Norte 7 Noroeste 0 -- -- 97
2020-11-26 23:00:00 6.5 3 Noroeste 10 Noroeste 0 -- -- 96
2020-11-26 22:00:00 7.4 2 Noroeste 5 Noroeste 0 -- -- 95
2020-11-26 21:00:00 8.1 2 Noroeste 7 Noroeste 0 -- -- 93
2020-11-26 20:00:00 9.1 3 Noroeste 7 Noroeste 0 -- -- 92
2020-11-26 19:00:00 10.6 2 Oeste 8 Nordeste 0 -- -- 86
2020-11-26 18:00:00 11.9 2 Noroeste 8 Nordeste 0 -- -- 83
2020-11-26 17:00:00 13.5 5 Nordeste 12 Nordeste 0 -- -- 71
2020-11-26 16:00:00 14 6 Sudeste 19 Este 0 -- -- 66
2020-11-26 15:00:00 14 10 Sudeste 19 Sudeste 0 -- -- 72
2020-11-26 14:00:00 12.6 0 Calma 8 Norte 0 -- -- 89
2020-11-26 13:00:00 10.8 2 Nordeste 5 Nordeste 0 -- -- 96
2020-11-26 12:00:00 9.7 3 Este 10 Este 0 -- -- 96
2020-11-26 11:00:00 8.5 3 Norte 13 Nordeste 0 -- -- 98
2020-11-26 10:00:00 7.6 2 Noroeste 6 Noroeste 0 -- -- 98
2020-11-26 09:00:00 7.3 2 Noroeste 7 Nordeste 0 -- -- 98
2020-11-26 08:00:00 7.2 2 Noroeste 8 Noroeste 0 -- -- 98
2020-11-26 07:00:00 7.1 0 Calma 6 Noroeste 0 -- -- 98
2020-11-26 06:00:00 7.2 0 Calma 6 Noroeste 0 -- -- 98
2020-11-26 05:00:00 7.4 3 Noroeste 6 Noroeste 0.2 -- -- 97
2020-11-26 04:00:00 7.5 0 Calma 10 Nordeste 0 -- -- 97
2020-11-26 03:00:00 7.6 0 Calma 13 Norte 0.2 -- -- 97
2020-11-26 02:00:00 7.4 3 Norte 10 Norte 1.2 -- -- 98
2020-11-26 01:00:00 6.8 3 Noroeste 8 Noroeste 0 -- -- 97
2020-11-26 00:00:00 7.2 0 Calma 8 Norte 0.2 -- -- 97
2020-11-25 23:00:00 7.4 3 Noroeste 12 Nordeste 0.2 -- -- 97
2020-11-25 22:00:00 7.4 3 Nordeste 6 Nordeste 2 -- -- 97
2020-11-25 21:00:00 7.5 2 Noroeste 9 Nordeste 1 -- -- 96
2020-11-25 20:00:00 7.5 2 Noroeste 8 Norte 1.2 -- -- 96
2020-11-25 19:00:00 7.5 3 Norte 8 Norte 0.6 -- -- 96
2020-11-25 18:00:00 7.6 2 Noroeste 8 Noroeste 0.4 -- -- 96
2020-11-25 17:00:00 7.9 3 Noroeste 7 Noroeste 0 -- -- 95
2020-11-25 16:00:00 7.8 0 Calma 5 Este 0 -- -- 94
2020-11-25 15:00:00 8.1 4 Sudeste 6 Sudeste 0 -- -- 94
2020-11-25 14:00:00 8.1 3 Este 9 Este 0.4 -- -- 93
2020-11-25 13:00:00 7.9 3 Oeste 8 Noroeste 0.2 -- -- 94
2020-11-25 12:00:00 7.9 3 Noroeste 10 Noroeste 0 -- -- 95
2020-11-25 11:00:00 7.7 4 Noroeste 13 Noroeste 0.2 -- -- 96
2020-11-25 10:00:00 8.2 4 Noroeste 9 Noroeste 0.2 -- -- 96
2020-11-25 09:00:00 8 0 Calma 5 Oeste 0.4 -- -- 97
2020-11-25 08:00:00 8.2 0 Calma 4 Oeste 0.4 -- -- 96
2020-11-25 07:00:00 8.4 2 Oeste 5 Oeste 0 -- -- 96
2020-11-25 06:00:00 8.8 2 Sudoeste 15 Oeste 0.4 -- -- 96
2020-11-25 05:00:00 8.9 0 Calma 13 Sur 1.2 -- -- 96
2020-11-25 04:00:00 9.4 5 Sur 17 Sudeste 0.2 -- -- 96
2020-11-25 03:00:00 9.4 5 Sudeste 22 Sur 0 -- -- 96
2020-11-25 02:00:00 9.7 7 Sur 22 Sur 2.6 -- -- 95
2020-11-25 01:00:00 10 3 Sudoeste 15 Oeste 4.2 -- -- 94
2020-11-25 00:00:00 10.3 2 Sudoeste 14 Sur 1.8 -- -- 92
2020-11-24 23:00:00 11.4 4 Sur 20 Sur 0 -- -- 82
2020-11-24 22:00:00 11.7 6 Sur 18 Sur 0 -- -- 75
2020-11-24 21:00:00 11.5 4 Sur 19 Sudeste 0 -- -- 76
2020-11-24 20:00:00 11.5 5 Sur 22 Sur 0 -- -- 78
2020-11-24 19:00:00 12.1 4 Sur 15 Sur 0 -- -- 77
2020-11-24 18:00:00 12.4 3 Sur 11 Sur 0 -- -- 75
2020-11-24 17:00:00 13.1 3 Sur 17 Oeste 0 -- -- 72
2020-11-24 16:00:00 13 2 Sur 9 Sur 0 -- -- 70
2020-11-24 15:00:00 13 3 Sur 15 Sudeste 0 -- -- 70
2020-11-24 14:00:00 12.2 3 Sur 19 Sudeste 0 -- -- 73
2020-11-24 13:00:00 13 5 Sur 23 Sur 0 -- -- 68
2020-11-24 12:00:00 10.6 7 Sudeste 15 Sur 0 -- -- 85
2020-11-24 11:00:00 6.1 6 Sudeste 13 Sudeste 0 -- -- 95
2020-11-24 10:00:00 3.2 7 Sudeste 13 Sudeste 0 -- -- 98
2020-11-24 09:00:00 2.4 5 Sudeste 11 Este 0 -- -- 97
2020-11-24 08:00:00 2.1 2 Sudeste 9 Sudeste 0 -- -- 97
2020-11-24 07:00:00 2.5 2 Sudeste 8 Sudeste 0 -- -- 97
2020-11-24 06:00:00 2.3 3 Sudeste 8 Sudeste 0 -- -- 97
2020-11-24 05:00:00 2.6 4 Sudeste 9 Sudeste 0 -- -- 97
2020-11-24 04:00:00 2.8 3 Sudeste 7 Sudeste 0 -- -- 97
2020-11-24 03:00:00 3.6 2 Sudeste 7 Sudeste 0 -- -- 96
2020-11-24 02:00:00 4.3 0 Calma 5 Sudeste 0 -- -- 96
2020-11-24 01:00:00 4.6 0 Calma 11 Sudeste 0 -- -- 95
2020-11-24 00:00:00 5.4 4 Sudeste 9 Sudeste 0 -- -- 94
2020-11-23 23:00:00 5.5 0 Calma 4 Este 0 -- -- 94
2020-11-23 22:00:00 6.1 0 Calma 0 Calma 0 -- -- 92
2020-11-23 21:00:00 7 0 Calma -- -- 0 -- -- 90
2020-11-23 20:00:00 8 0 Calma 2 Noroeste 0 -- -- 88
2020-11-23 19:00:00 9.1 0 Calma 4 Sudeste 0 -- -- 83
2020-11-23 18:00:00 11 0 Calma 4 Este 0 -- -- 72
2020-11-23 17:00:00 13 3 Este 5 Sudeste 0 -- -- 68
2020-11-23 16:00:00 12.8 3 Sudeste 9 Sudeste 0 -- -- 70
2020-11-23 15:00:00 11.7 4 Sudeste 8 Sudeste 0.2 -- -- 75
2020-11-23 14:00:00 10.1 3 Sudeste 5 Sudeste 0 -- -- 84
2020-11-23 13:00:00 7.4 2 Sudeste 6 Sudeste 0 -- -- 92
2020-11-23 12:00:00 5.1 0 Calma 5 Sudeste 0 -- -- 95
2020-11-23 11:00:00 2.6 3 Sudeste 5 Este 0 -- -- 97
2020-11-23 10:00:00 1.3 0 Calma 5 Sudeste 0 -- -- 97
2020-11-23 09:00:00 0.8 0 Calma 3 Sudeste 0 -- -- 97
2020-11-23 08:00:00 1.2 0 Calma 2 Sudeste 0 -- -- 97
2020-11-23 07:00:00 1.6 0 Calma 5 Sudeste 0 -- -- 97
2020-11-23 06:00:00 1.6 2 Sudeste 4 Sudeste 0 -- -- 96
2020-11-23 05:00:00 1.8 0 Calma -- -- 0 -- -- 96
2020-11-23 04:00:00 1.8 0 Calma 2 Sur 0 -- -- 95
2020-11-23 03:00:00 2.4 0 Calma 5 Sudeste 0 -- -- 95
2020-11-23 02:00:00 2.6 0 Calma 3 Sudeste 0 -- -- 93
2020-11-23 01:00:00 3.1 0 Calma -- -- 0 -- -- 93
2020-11-23 00:00:00 4 0 Calma -- -- 0 -- -- 92
2020-11-22 23:00:00 4.8 0 Calma -- -- 0 -- -- 91
2020-11-22 22:00:00 5.9 0 Calma -- -- 0 -- -- 90
2020-11-22 21:00:00 7.3 0 Calma 4 Noroeste 0 -- -- 88
2020-11-22 20:00:00 8.9 3 Noroeste 6 Noroeste 0 -- -- 84
2020-11-22 19:00:00 11 2 Noroeste 4 Noroeste 0 -- -- 76
2020-11-22 18:00:00 13.8 0 Calma 5 Nordeste 0 -- -- 65
2020-11-22 17:00:00 15.8 0 Calma 6 Sudeste 0 -- -- 54
2020-11-22 16:00:00 15.3 2 Sudeste 8 Sur 0 -- -- 54
2020-11-22 15:00:00 14.7 4 Sudeste 9 Sudeste 0 -- -- 59
2020-11-22 14:00:00 14.2 3 Sudeste 10 Sudeste 0 -- -- 62
2020-11-22 13:00:00 12.3 5 Sudeste 14 Sudeste 0 -- -- 73
2020-11-22 12:00:00 9.3 8 Sudeste 14 Sudeste 0 -- -- 88
2020-11-22 11:00:00 5.8 7 Sudeste 12 Sudeste 0 -- -- 96
2020-11-22 10:00:00 3.1 3 Sudeste 7 Sudeste 0 -- -- 98
2020-11-22 09:00:00 1.9 3 Sudeste 7 Sudeste 0 -- -- 98
2020-11-22 08:00:00 2.2 2 Sudeste 8 Este 0 -- -- 98
2020-11-22 07:00:00 2.6 2 Sudeste 9 Sudeste 0 -- -- 97
2020-11-22 06:00:00 3.2 6 Sudeste 11 Sudeste 0 -- -- 97
2020-11-22 05:00:00 3.4 5 Sudeste 11 Sudeste 0 -- -- 97
2020-11-22 04:00:00 4 2 Sudeste 6 Sudeste 0 -- -- 97
2020-11-22 03:00:00 4.4 3 Sudeste 5 Este 0 -- -- 96
2020-11-22 02:00:00 5.1 3 Sudeste 6 Sudeste 0 -- -- 96
2020-11-22 01:00:00 5.8 4 Sudeste 10 Sudeste 0 -- -- 95
2020-11-22 00:00:00 6.2 3 Sudeste 9 Sudeste 0 -- -- 94
2020-11-21 23:00:00 6.5 0 Calma 4 Sudeste 0 -- -- 93
2020-11-21 22:00:00 6.8 0 Calma 0 Calma 0 -- -- 91
2020-11-21 21:00:00 8 0 Calma 3 Este 0 -- -- 90
2020-11-21 20:00:00 9.2 0 Calma 3 Oeste 0 -- -- 87
2020-11-21 19:00:00 11.1 0 Calma 2 Sudeste 0 -- -- 82
2020-11-21 18:00:00 13.1 0 Calma 6 Nordeste 0 -- -- 70
2020-11-21 17:00:00 15.4 0 Calma 5 Este 0 -- -- 64
2020-11-21 16:00:00 14.3 2 Sudeste 6 Sudeste 0 -- -- 67
2020-11-21 15:00:00 13.3 3 Sudeste 7 Sudeste 0 -- -- 74
2020-11-21 14:00:00 11.7 3 Sudeste 8 Sudeste 0 -- -- 86
2020-11-21 13:00:00 8.8 3 Sudeste 8 Sudeste 0 -- -- 94
2020-11-21 12:00:00 6.3 5 Este 10 Sudeste 0 -- -- 97
2020-11-21 11:00:00 4.6 0 Calma 5 Sudeste 0 -- -- 97
2020-11-21 10:00:00 3.8 0 Calma 2 Norte 0 -- -- 97
2020-11-21 09:00:00 3.5 0 Calma 4 Sudeste 0 -- -- 97
2020-11-21 08:00:00 3.5 0 Calma 8 Sudeste 0 -- -- 97
2020-11-21 07:00:00 3.7 3 Sudeste 6 Sudeste 0 -- -- 97
2020-11-21 06:00:00 4 2 Sudeste 8 Sudeste 0 -- -- 96
2020-11-21 05:00:00 4.1 2 Este 6 Sudeste 0 -- -- 96
2020-11-21 04:00:00 4.1 2 Sudeste 3 Sudeste 0 -- -- 95
2020-11-21 03:00:00 4.5 0 Calma 2 Oeste 0 -- -- 94
2020-11-21 02:00:00 5.3 0 Calma 4 Noroeste 0 -- -- 93
2020-11-21 01:00:00 5.8 2 Noroeste 5 Noroeste 0 -- -- 92
2020-11-21 00:00:00 6.7 2 Noroeste 6 Noroeste 0 -- -- 92
2020-11-20 23:00:00 7.2 3 Noroeste 8 Noroeste 0 -- -- 91
2020-11-20 22:00:00 8.1 3 Noroeste 9 Noroeste 0 -- -- 89
2020-11-20 21:00:00 8.6 3 Noroeste 18 Norte 0 -- -- 87
2020-11-20 20:00:00 9.8 6 Norte 19 Nordeste 0 -- -- 83
2020-11-20 19:00:00 10.6 8 Nordeste 21 Nordeste 0 -- -- 81
2020-11-20 18:00:00 11.7 8 Norte 17 Norte 0 -- -- 78
2020-11-20 17:00:00 13.8 6 Norte 17 Norte 0 -- -- 70
2020-11-20 16:00:00 13.9 6 Norte 17 Norte 0 -- -- 67
2020-11-20 15:00:00 13.8 7 Nordeste 16 Norte 0 -- -- 66
2020-11-20 14:00:00 13.4 8 Norte 19 Nordeste 0 -- -- 65
2020-11-20 13:00:00 12.8 6 Nordeste 13 Nordeste 0 -- -- 68
2020-11-20 12:00:00 11.3 5 Nordeste 13 Este 0 -- -- 73
2020-11-20 11:00:00 10.1 3 Este 12 Nordeste 0 -- -- 80
2020-11-20 10:00:00 7.9 3 Norte 8 Nordeste 0 -- -- 92
2020-11-20 09:00:00 6.3 0 Calma 8 Nordeste 0 -- -- 91
2020-11-20 08:00:00 7.5 5 Nordeste 10 Nordeste 0 -- -- 91
2020-11-20 07:00:00 7.6 2 Nordeste 12 Norte 0 -- -- 90
2020-11-20 06:00:00 8 4 Nordeste 17 Nordeste 0 -- -- 90
2020-11-20 05:00:00 8.1 5 Nordeste 14 Norte 0 -- -- 89
2020-11-20 04:00:00 8.2 6 Norte 13 Nordeste 0 -- -- 90
2020-11-20 03:00:00 8.3 4 Norte 11 Norte 0 -- -- 89
2020-11-20 02:00:00 9.1 4 Nordeste 13 Norte 0 -- -- 86
2020-11-20 01:00:00 9.8 3 Nordeste 15 Norte 0 -- -- 87
2020-11-20 00:00:00 9.6 5 Nordeste 19 Nordeste 0 -- -- 90
2020-11-19 23:00:00 9.7 8 Nordeste 21 Nordeste 0 -- -- 89
2020-11-19 22:00:00 9.7 8 Norte 19 Norte 0 -- -- 91
2020-11-19 21:00:00 10 8 Norte 18 Norte 0 -- -- 90
2020-11-19 20:00:00 10.4 6 Norte 15 Nordeste 0 -- -- 89
2020-11-19 19:00:00 10.7 5 Nordeste 16 Nordeste 0 -- -- 88
2020-11-19 18:00:00 10.9 7 Nordeste 21 Noroeste 0 -- -- 86
2020-11-19 17:00:00 11.4 6 Norte 32 Norte 0 -- -- 84
2020-11-19 16:00:00 12.2 10 Norte 24 Nordeste 0 -- -- 85
2020-11-19 15:00:00 12.7 10 Norte 23 Noroeste 0 -- -- 83
2020-11-19 14:00:00 13.1 8 Norte 19 Norte 0 -- -- 82
2020-11-19 13:00:00 13 6 Nordeste 19 Nordeste 0 -- -- 81
2020-11-19 12:00:00 12.9 8 Nordeste 17 Norte 0 -- -- 82
2020-11-19 11:00:00 11.7 8 Nordeste 18 Nordeste 0 -- -- 87
2020-11-19 10:00:00 10.9 9 Nordeste 16 Nordeste 0 -- -- 89
2020-11-19 09:00:00 10.9 5 Norte 14 Norte 0 -- -- 91
2020-11-19 08:00:00 10.9 4 Norte 20 Norte 0 -- -- 93
2020-11-19 07:00:00 10.9 7 Nordeste 20 Nordeste 0 -- -- 94
2020-11-19 06:00:00 10.7 9 Norte 21 Norte 0 -- -- 94
2020-11-19 05:00:00 11 5 Nordeste 13 Nordeste 0 -- -- 93
2020-11-19 04:00:00 11.3 3 Noroeste 13 Este 0 -- -- 92
2020-11-19 03:00:00 12.2 9 Nordeste 23 Nordeste 0 -- -- 91
2020-11-19 02:00:00 12.5 6 Nordeste 15 Norte 0 -- -- 95
2020-11-19 01:00:00 12.6 5 Norte 14 Norte 0 -- -- 93
2020-11-19 00:00:00 13 2 Noroeste 6 Noroeste 0 -- -- 89
2020-11-18 23:00:00 13.9 0 Calma 14 Este 0 -- -- 86
2020-11-18 22:00:00 15.2 4 Norte 13 Norte 0 -- -- 82
2020-11-18 21:00:00 15 2 Noroeste 8 Noroeste 0 -- -- 85
2020-11-18 20:00:00 15.9 3 Noroeste 16 Noroeste 0 -- -- 82
2020-11-18 19:00:00 16.6 3 Noroeste 8 Oeste 0 -- -- 80
2020-11-18 18:00:00 18.2 3 Noroeste 11 Oeste 0 -- -- 71
2020-11-18 17:00:00 19.7 2 Sudoeste 14 Oeste 0 -- -- 63
2020-11-18 16:00:00 20.1 6 Sudoeste 20 Oeste 0 -- -- 61
2020-11-18 15:00:00 19.1 4 Sudoeste 26 Oeste 0 -- -- 64
2020-11-18 14:00:00 19.1 6 Sudoeste 23 Oeste 0 -- -- 65
2020-11-18 13:00:00 19 5 Sur 18 Sudoeste 0 -- -- 68
2020-11-18 12:00:00 18.4 6 Sur 23 Sudeste 0 -- -- 69
2020-11-18 11:00:00 17.6 5 Sur 18 Sudeste 0 -- -- 72
2020-11-18 10:00:00 15.3 3 Sur 13 Sudeste 0 -- -- 82
2020-11-18 09:00:00 13.8 4 Sur 14 Sur 0 -- -- 85
2020-11-18 08:00:00 14 3 Sur 14 Sur 0 -- -- 85
2020-11-18 07:00:00 13.5 0 Calma 11 Sudeste 0 -- -- 86
2020-11-18 06:00:00 14.7 2 Sur 10 Sur 0 -- -- 83
2020-11-18 05:00:00 15.5 2 Sur 14 Sudeste 0 -- -- 80
2020-11-18 04:00:00 15.6 3 Sur 15 Sur 0 -- -- 78
2020-11-18 03:00:00 15.6 5 Sudeste 12 Sudeste 0 -- -- 72
2020-11-18 02:00:00 15.3 3 Sur 14 Sudeste 0 -- -- 72
2020-11-18 01:00:00 14.5 3 Sur 12 Sur 0 -- -- 72
2020-11-18 00:00:00 14 2 Sur 12 Sur 0 -- -- 72
2020-11-17 23:00:00 13.8 4 Sudeste 10 Sudeste 0 -- -- 72
2020-11-17 22:00:00 14.2 4 Sudeste 12 Sudeste 0 -- -- 69
2020-11-17 21:00:00 14.5 4 Sur 15 Sur 0 -- -- 69
2020-11-17 20:00:00 14.5 3 Sur 11 Sur 0 -- -- 71
2020-11-17 19:00:00 14.8 0 Calma 4 Sudeste 0 -- -- 69
2020-11-17 18:00:00 17.4 0 Calma 6 Oeste 0 -- -- 60
2020-11-17 17:00:00 19.2 2 Sudoeste 8 Sudeste 0 -- -- 55
2020-11-17 16:00:00 18.3 3 Sur 9 Sur 0 -- -- 57
2020-11-17 15:00:00 17.2 4 Sur 12 Sudeste 0 -- -- 62
2020-11-17 14:00:00 15.6 4 Sudeste 9 Este 0 -- -- 72
2020-11-17 13:00:00 13.6 5 Sudeste 12 Sudeste 0 -- -- 84
2020-11-17 12:00:00 10.7 4 Sudeste 12 Sudeste 0 -- -- 95
2020-11-17 11:00:00 8 4 Sudeste 10 Sudeste 0 -- -- 97
2020-11-17 10:00:00 4.6 5 Sudeste 11 Sudeste 0 -- -- 99
2020-11-17 09:00:00 3 6 Sudeste 14 Sudeste 0 -- -- 99
2020-11-17 08:00:00 3.1 7 Sudeste 13 Sudeste 0 -- -- 99
2020-11-17 07:00:00 3.4 3 Sudeste 10 Sudeste 0 -- -- 99
2020-11-17 06:00:00 3.8 4 Sudeste 13 Sudeste 0 -- -- 98
2020-11-17 05:00:00 4.2 8 Sudeste 14 Sudeste 0 -- -- 98
2020-11-17 04:00:00 4.5 5 Sudeste 11 Sudeste 0 -- -- 98
2020-11-17 03:00:00 4.8 4 Sudeste 12 Sudeste 0 -- -- 97
2020-11-17 02:00:00 5.5 6 Sudeste 10 Sudeste 0 -- -- 97
2020-11-17 01:00:00 6.2 6 Sudeste 10 Sudeste 0 -- -- 96
2020-11-17 00:00:00 6.5 0 Calma 0 Calma 0 -- -- 96
2020-11-16 23:00:00 6.7 0 Calma 0 Calma 0 -- -- 95
2020-11-16 22:00:00 6.9 0 Calma 0 Calma 0 -- -- 94
2020-11-16 21:00:00 7.9 0 Calma 0 Calma 0 -- -- 93
2020-11-16 20:00:00 9 0 Calma 0 Calma 0 -- -- 91
2020-11-16 19:00:00 10.4 0 Calma 4 Nordeste 0 -- -- 85
2020-11-16 18:00:00 12.8 3 Este 6 Este 0 -- -- 79
2020-11-16 17:00:00 14 0 Calma 6 Sudeste 0 -- -- 76
2020-11-16 16:00:00 12.8 0 Calma 7 Sudeste 0 -- -- 77
2020-11-16 15:00:00 12 0 Calma 5 Sudeste 0 -- -- 84
2020-11-16 14:00:00 11.8 0 Calma 6 Nordeste 0 -- -- 91
2020-11-16 13:00:00 10.2 2 Este 7 Este 0 -- -- 96
2020-11-16 12:00:00 9.6 2 Sudeste 6 Sudeste 0 -- -- 97
2020-11-16 11:00:00 9 0 Calma 4 Oeste 0 -- -- 97
2020-11-16 10:00:00 7.8 0 Calma 4 Noroeste 0.2 -- -- 98
2020-11-16 09:00:00 8 3 Noroeste 6 Oeste 0 -- -- 98
2020-11-16 08:00:00 8.2 0 Calma 4 Sur 0 -- -- 97
2020-11-16 07:00:00 8.9 0 Calma 6 Sudeste 0 -- -- 97
2020-11-16 06:00:00 9.2 0 Calma 4 Sur 0 -- -- 97
2020-11-16 05:00:00 9.6 0 Calma 5 Oeste 0 -- -- 97
2020-11-16 04:00:00 9.8 0 Calma 4 Sudeste 0 -- -- 97
2020-11-16 03:00:00 9.8 0 Calma 3 Noroeste 0 -- -- 96
2020-11-16 02:00:00 10 0 Calma 5 Sudeste 0 -- -- 96
2020-11-16 01:00:00 10.1 0 Calma 4 Sudeste 0 -- -- 96
2020-11-16 00:00:00 10.3 2 Sudeste 6 Sudeste 0 -- -- 96
2020-11-15 23:00:00 10.3 0 Calma 4 Sudeste 0 -- -- 95
2020-11-15 22:00:00 10.4 3 Sudeste 5 Sur 0 -- -- 95
2020-11-15 21:00:00 10.3 0 Calma 8 Oeste 0 -- -- 95
2020-11-15 20:00:00 10.7 5 Noroeste 23 Noroeste 0.2 -- -- 95
2020-11-15 19:00:00 12 9 Noroeste 22 Noroeste 0 -- -- 92
2020-11-15 18:00:00 12.7 0 Calma 17 Sudoeste 0 -- -- 93
2020-11-15 17:00:00 13.3 8 Oeste 16 Oeste 0 -- -- 91
2020-11-15 16:00:00 13.3 6 Oeste 22 Oeste 0 -- -- 93
2020-11-15 15:00:00 12.7 9 Oeste 20 Oeste 2.4 -- -- 95
2020-11-15 14:00:00 13.5 7 Noroeste 18 Oeste 1.2 -- -- 94
2020-11-15 13:00:00 14.5 12 Oeste 35 Oeste 1 -- -- 92
2020-11-15 12:00:00 15.4 12 Oeste 36 Oeste 1.4 -- -- 93
2020-11-15 11:00:00 16.6 11 Sudoeste 38 Oeste 0 -- -- 84
2020-11-15 10:00:00 15.9 7 Sudoeste 28 Oeste 0 -- -- 90
2020-11-15 09:00:00 15.1 5 Sudoeste 28 Oeste 0.8 -- -- 94
2020-11-15 08:00:00 14.8 3 Sudoeste 15 Sur 1.4 -- -- 95
2020-11-15 07:00:00 15 4 Sur 20 Sur 0.2 -- -- 93
2020-11-15 06:00:00 14.8 5 Sur 23 Sudeste 0 -- -- 93
2020-11-15 05:00:00 14.8 6 Sur 21 Sur 0 -- -- 91
2020-11-15 04:00:00 14.5 5 Sur 21 Sur 0.4 -- -- 92
2020-11-15 03:00:00 14.5 5 Sur 24 Sur 0 -- -- 92
2020-11-15 02:00:00 14 5 Sur 22 Sur 0 -- -- 94
2020-11-15 01:00:00 13.8 3 Sur 20 Sur 0.4 -- -- 94
2020-11-15 00:00:00 14 6 Sur 23 Sur 1.2 -- -- 91
2020-11-14 23:00:00 14.5 5 Sur 16 Sur 0 -- -- 85
2020-11-14 22:00:00 14.7 4 Sur 26 Sur 0 -- -- 85
2020-11-14 21:00:00 15.2 5 Sudoeste 21 Sudeste 0 -- -- 81
2020-11-14 20:00:00 15.1 5 Sur 19 Sur 0 -- -- 81
2020-11-14 19:00:00 14.9 5 Sur 20 Sur 0 -- -- 81
2020-11-14 18:00:00 15.2 4 Sur 13 Sur 0 -- -- 79
2020-11-14 17:00:00 16 4 Sur 17 Sudeste 0 -- -- 76
2020-11-14 16:00:00 16.4 3 Sudoeste 18 Sudoeste 0 -- -- 73
2020-11-14 15:00:00 16.6 5 Sur 19 Sur 0 -- -- 70
2020-11-14 14:00:00 16.4 7 Sudoeste 23 Oeste 0 -- -- 69
2020-11-14 13:00:00 16.4 6 Sudoeste 21 Sur 0 -- -- 68
2020-11-14 12:00:00 15.4 5 Sur 23 Sur 0 -- -- 70
2020-11-14 11:00:00 14.7 5 Sur 24 Este 0 -- -- 71
2020-11-14 10:00:00 13.3 4 Sur 18 Sur 0 -- -- 76
2020-11-14 09:00:00 11.5 3 Sudoeste 9 Sur 0 -- -- 81
2020-11-14 08:00:00 10.5 3 Sur 18 Sur 0 -- -- 82
2020-11-14 07:00:00 10.7 5 Sur 17 Sudeste 0 -- -- 82
2020-11-14 06:00:00 10.2 4 Sur 16 Sur 0 -- -- 84
2020-11-14 05:00:00 10.4 2 Sudoeste 12 Sudoeste 0 -- -- 82
2020-11-14 04:00:00 10.5 3 Sur 14 Sudeste 0 -- -- 82
2020-11-14 03:00:00 9.8 4 Sudeste 12 Sudeste 0 -- -- 86
2020-11-14 02:00:00 10.4 4 Sur 14 Sudeste 0 -- -- 83
2020-11-14 01:00:00 10.7 3 Sur 12 Sudeste 0 -- -- 83
2020-11-14 00:00:00 10.1 2 Sur 8 Sur 0 -- -- 86
2020-11-13 23:00:00 10.1 0 Calma 6 Sudeste 0 -- -- 87
2020-11-13 22:00:00 10.3 0 Calma 6 Sudeste 0 -- -- 86
2020-11-13 21:00:00 12.1 3 Sur 10 Sur 0 -- -- 82
2020-11-13 20:00:00 12.5 2 Sur 7 Sudeste 0 -- -- 81
2020-11-13 19:00:00 13.6 3 Sudeste 8 Sudeste 0 -- -- 76
2020-11-13 18:00:00 15.2 0 Calma 17 Oeste 0 -- -- 67
2020-11-13 17:00:00 17.2 5 Sudoeste 17 Oeste 0 -- -- 62
2020-11-13 16:00:00 17.1 4 Sudoeste 19 Oeste 0 -- -- 60
2020-11-13 15:00:00 16.8 5 Sudoeste 16 Sur 0 -- -- 62
2020-11-13 14:00:00 16.4 5 Sudoeste 18 Oeste 0 -- -- 62
2020-11-13 13:00:00 16.4 5 Sur 16 Sur 0 -- -- 63
2020-11-13 12:00:00 15.2 3 Sur 10 Sudeste 0 -- -- 70
2020-11-13 11:00:00 12.1 4 Sudeste 12 Este 0 -- -- 82
2020-11-13 10:00:00 8.6 5 Sudeste 11 Sudeste 0 -- -- 92
2020-11-13 09:00:00 6.9 3 Sudeste 6 Sudeste 0 -- -- 95
2020-11-13 08:00:00 7.1 4 Sudeste 9 Sudeste 0 -- -- 94
2020-11-13 07:00:00 7.7 4 Sudeste 7 Sudeste 0 -- -- 93
2020-11-13 06:00:00 8.6 3 Sudeste 6 Sudeste 0 -- -- 92
2020-11-13 05:00:00 8.8 4 Este 10 Sudeste 0 -- -- 91
2020-11-13 04:00:00 10.1 3 Este 8 Sudeste 0 -- -- 88
2020-11-13 03:00:00 10.1 3 Sudeste 8 Sudeste 0 -- -- 89
2020-11-13 02:00:00 11 3 Sudeste 8 Sudeste 0 -- -- 85
2020-11-13 01:00:00 12 2 Sur 9 Sur 0 -- -- 81
2020-11-13 00:00:00 12.3 2 Sudeste 10 Sur 0 -- -- 81
2020-11-12 23:00:00 12.4 2 Sur 6 Sudeste 0 -- -- 82
2020-11-12 22:00:00 12.7 3 Sudeste 7 Sudeste 0 -- -- 81
2020-11-12 21:00:00 12.9 0 Calma 7 Oeste 0 -- -- 81
2020-11-12 20:00:00 13.1 0 Calma 7 Oeste 0 -- -- 78
2020-11-12 19:00:00 13.7 0 Calma 6 Noroeste 0 -- -- 76
2020-11-12 18:00:00 15.1 0 Calma 14 Sur 0 -- -- 66
2020-11-12 17:00:00 17.9 3 Sur 14 Sudoeste 0 -- -- 59
2020-11-12 16:00:00 17.6 3 Sudoeste 16 Sur 0 -- -- 57
2020-11-12 15:00:00 17.2 4 Sur 19 Oeste 0 -- -- 59
2020-11-12 14:00:00 16.8 6 Sudoeste 26 Oeste 0 -- -- 61
2020-11-12 13:00:00 16.6 6 Sudoeste 18 Sudoeste 0 -- -- 62
2020-11-12 12:00:00 16.2 5 Sur 14 Sudeste 0 -- -- 64
2020-11-12 11:00:00 13.9 4 Sur 14 Sur 0 -- -- 72
2020-11-12 10:00:00 12.6 4 Sur 12 Sudeste 0 -- -- 77
2020-11-12 09:00:00 11.3 2 Sur 11 Sur 0 -- -- 82
2020-11-12 08:00:00 11.6 2 Sur 9 Sur 0 -- -- 81
2020-11-12 07:00:00 11.6 0 Calma 8 Sur 0 -- -- 81
2020-11-12 06:00:00 12 2 Sur 9 Sudeste 0 -- -- 79
2020-11-12 05:00:00 12.1 3 Sur 9 Sudeste 0 -- -- 77
2020-11-12 04:00:00 12.3 3 Sur 10 Sur 0 -- -- 77
2020-11-12 03:00:00 12.3 3 Sur 12 Sur 0 -- -- 77
2020-11-12 02:00:00 12.4 0 Calma 13 Sudeste 0 -- -- 76
2020-11-12 01:00:00 12.5 3 Sudoeste 14 Sudeste 0 -- -- 76
2020-11-12 00:00:00 12.5 3 Sudoeste 12 Sudoeste 0 -- -- 78
2020-11-11 23:00:00 12.3 3 Sur 15 Sudeste 0 -- -- 80
2020-11-11 22:00:00 12.5 5 Sur 16 Sur 0 -- -- 81
2020-11-11 21:00:00 12.7 4 Sur 18 Sur 0 -- -- 81
2020-11-11 20:00:00 12.6 5 Sur 18 Sur 0 -- -- 81
2020-11-11 19:00:00 12.4 4 Sur 15 Sur 0 -- -- 81
2020-11-11 18:00:00 12.6 4 Sur 18 Sur 0 -- -- 80
2020-11-11 17:00:00 12.8 3 Sur 15 Sur 0 -- -- 79
2020-11-11 16:00:00 13.6 3 Sudoeste 14 Sur 0 -- -- 74
2020-11-11 15:00:00 14.3 5 Sur 15 Sur 0 -- -- 72
2020-11-11 14:00:00 13.1 6 Sudeste 17 Sudeste 0 -- -- 74
2020-11-11 13:00:00 12.5 4 Sur 15 Sur 0 -- -- 77
2020-11-11 12:00:00 12 4 Sudoeste 21 Sudeste 0 -- -- 76
2020-11-11 11:00:00 11 5 Sur 17 Sur 0 -- -- 80
2020-11-11 10:00:00 10 5 Sur 15 Sur 0 -- -- 87
2020-11-11 09:00:00 7.1 3 Sur 11 Sur 0 -- -- 97
2020-11-11 08:00:00 6.1 4 Sudeste 10 Sudeste 0 -- -- 96
2020-11-11 07:00:00 6.8 3 Sudeste 7 Sur 0 -- -- 96
2020-11-11 06:00:00 6.9 2 Sudeste 7 Sudeste 0 -- -- 96
2020-11-11 05:00:00 7 4 Sudeste 11 Sudeste 0 -- -- 96
2020-11-11 04:00:00 6.9 5 Sudeste 12 Sudeste 0 -- -- 96
2020-11-11 03:00:00 6.9 4 Sudeste 8 Sudeste 0 -- -- 96
2020-11-11 02:00:00 7.1 2 Sudeste 8 Sudeste 0 -- -- 96
2020-11-11 01:00:00 7.1 0 Calma 10 Sudeste 0 -- -- 96
2020-11-11 00:00:00 7.1 4 Sudeste 12 Sudeste 0 -- -- 96
2020-11-10 23:00:00 7.8 3 Sudeste 6 Este 0 -- -- 95
2020-11-10 22:00:00 8.1 2 Sudeste 4 Sudeste 0 -- -- 94
2020-11-10 21:00:00 9.2 3 Sudeste 7 Sudeste 0 -- -- 93
2020-11-10 20:00:00 10.2 3 Sudeste 6 Sudeste 0 -- -- 90
2020-11-10 19:00:00 11.3 0 Calma 5 Sudeste 0 -- -- 84
2020-11-10 18:00:00 14 0 Calma 6 Sudeste 0 -- -- 71
2020-11-10 17:00:00 14.9 3 Sur 9 Sur 0 -- -- 72
2020-11-10 16:00:00 14.4 3 Sudoeste 12 Sudeste 0 -- -- 69
2020-11-10 15:00:00 13.7 4 Sudeste 10 Oeste 0 -- -- 74
2020-11-10 14:00:00 12.7 4 Sudoeste 12 Oeste 0 -- -- 77
2020-11-10 13:00:00 12.1 4 Sur 12 Sudeste 0 -- -- 83
2020-11-10 12:00:00 10.5 5 Sudeste 15 Sudeste 0 -- -- 93
2020-11-10 11:00:00 9.1 4 Este 8 Sudeste 0 -- -- 97
2020-11-10 10:00:00 7.7 4 Sudeste 12 Sudeste 0 -- -- 97
2020-11-10 09:00:00 7.7 0 Calma 4 Noroeste 0 -- -- 97
2020-11-10 08:00:00 7.1 0 Calma 6 Norte 0 -- -- 97
2020-11-10 07:00:00 7 0 Calma 4 Noroeste 0 -- -- 97
2020-11-10 06:00:00 7.9 0 Calma 5 Sudeste 0 -- -- 97
2020-11-10 05:00:00 7.9 3 Sudeste 6 Sudeste 0 -- -- 97
2020-11-10 04:00:00 7.5 2 Sudeste 7 Sudeste 0 -- -- 97
2020-11-10 03:00:00 7 0 Calma 6 Norte 0 -- -- 96
2020-11-10 02:00:00 7 2 Noroeste 5 Noroeste 0 -- -- 96
2020-11-10 01:00:00 7 0 Calma 2 Noroeste 0 -- -- 96
2020-11-10 00:00:00 7.5 0 Calma 6 Sudeste 0 -- -- 96
2020-11-09 23:00:00 8.5 0 Calma 5 Noroeste 0 -- -- 95
2020-11-09 22:00:00 9 0 Calma 5 Sudeste 0 -- -- 94
2020-11-09 21:00:00 9.7 0 Calma 3 Noroeste 0 -- -- 92
2020-11-09 20:00:00 10.4 0 Calma 4 Oeste 0 -- -- 90
2020-11-09 19:00:00 11.4 0 Calma 8 Oeste 0 -- -- 87
2020-11-09 18:00:00 13 3 Oeste 18 Oeste 0 -- -- 83
2020-11-09 17:00:00 14.2 6 Oeste 27 Oeste 0 -- -- 78
2020-11-09 16:00:00 14.3 6 Oeste 23 Oeste 0.2 -- -- 80
2020-11-09 15:00:00 13.2 12 Oeste 27 Oeste 0 -- -- 85
2020-11-09 14:00:00 13.7 3 Oeste 16 Oeste 0.2 -- -- 88
2020-11-09 13:00:00 13.9 3 Sudoeste 18 Oeste 0 -- -- 82
2020-11-09 12:00:00 13 5 Sudoeste 13 Oeste 0 -- -- 87
2020-11-09 11:00:00 12.4 2 Sudoeste 12 Oeste 0.2 -- -- 93
2020-11-09 10:00:00 11.3 2 Sudoeste 13 Oeste 0.8 -- -- 96
2020-11-09 09:00:00 10.9 2 Sudoeste 8 Sudeste 0.6 -- -- 96
2020-11-09 08:00:00 10.8 3 Sudeste 6 Sudeste 1.6 -- -- 96
2020-11-09 07:00:00 10.7 2 Sur 12 Sur 1 -- -- 96
2020-11-09 06:00:00 10.5 2 Sur 9 Sudeste 0.8 -- -- 95
2020-11-09 05:00:00 10.6 4 Sudeste 7 Sudeste 2 -- -- 95
2020-11-09 04:00:00 10.5 3 Sur 10 Sudeste 0 -- -- 95
2020-11-09 03:00:00 10.1 0 Calma 9 Sudoeste 0 -- -- 95
2020-11-09 02:00:00 10.4 4 Sur 13 Sudeste 0 -- -- 95
2020-11-09 01:00:00 10.4 3 Sur 12 Sudeste 0 -- -- 94
2020-11-09 00:00:00 10.7 3 Sur 10 Sur 0.2 -- -- 94
2020-11-08 23:00:00 11.3 5 Sur 18 Sudeste 0 -- -- 94
2020-11-08 22:00:00 11.1 6 Sur 16 Sudeste 0.2 -- -- 94
2020-11-08 21:00:00 11.2 3 Sur 12 Sudoeste 0 -- -- 94
2020-11-08 20:00:00 11.4 3 Sur 12 Sur 0 -- -- 93
2020-11-08 19:00:00 12.2 3 Sur 21 Oeste 0.4 -- -- 92
2020-11-08 18:00:00 13.8 3 Sudoeste 13 Sur 0 -- -- 83
2020-11-08 17:00:00 14.4 3 Sur 28 Sudoeste 0 -- -- 81
2020-11-08 16:00:00 14.4 5 Sudoeste 25 Sur 0 -- -- 82
2020-11-08 15:00:00 15.5 6 Sudoeste 27 Oeste 0 -- -- 77
2020-11-08 14:00:00 15.8 9 Sur 33 Sur 0 -- -- 77
2020-11-08 13:00:00 15.8 7 Sur 27 Sur 0 -- -- 76
2020-11-08 12:00:00 14.4 5 Sur 18 Sudeste 0 -- -- 91
2020-11-08 11:00:00 13.2 6 Sudeste 18 Sudeste 0.4 -- -- 95
2020-11-08 10:00:00 10.9 6 Sur 35 Sudoeste 5.8 -- -- 95
2020-11-08 09:00:00 11.2 8 Sudoeste 27 Oeste 8.8 -- -- 93
2020-11-08 08:00:00 11.7 5 Oeste 17 Noroeste 1.2 -- -- 90
2020-11-08 07:00:00 11.5 4 Sur 18 Sudeste 0.2 -- -- 91
2020-11-08 06:00:00 11.2 5 Sur 16 Sur 0 -- -- 94
2020-11-08 05:00:00 10.8 3 Sudeste 11 Sur 0 -- -- 94
2020-11-08 04:00:00 11.3 3 Sur 10 Sudeste 0 -- -- 93
2020-11-08 03:00:00 11.9 3 Sur 15 Sur 0.2 -- -- 93
2020-11-08 02:00:00 10.8 2 Sur 12 Sur 0 -- -- 94
2020-11-08 01:00:00 11.1 3 Sudeste 9 Sur 0 -- -- 92
2020-11-08 00:00:00 11.4 2 Sur 8 Sur 0 -- -- 91
2020-11-07 23:00:00 11.7 2 Sur 12 Sur 0 -- -- 92
2020-11-07 22:00:00 11.7 3 Sur 12 Sudeste 0 -- -- 93
2020-11-07 21:00:00 11.8 5 Sudeste 17 Sur 0 -- -- 92
2020-11-07 20:00:00 12.2 4 Sur 18 Sur 0.2 -- -- 91
2020-11-07 19:00:00 12.3 4 Sur 17 Sur 0 -- -- 92
2020-11-07 18:00:00 12.8 4 Sur 16 Sudeste 0 -- -- 90
2020-11-07 17:00:00 13.6 4 Sur 20 Sur 0.2 -- -- 88
2020-11-07 16:00:00 14.3 5 Sudoeste 19 Sudeste 0 -- -- 79
2020-11-07 15:00:00 14.7 5 Sudoeste 35 Oeste 0 -- -- 76
2020-11-07 14:00:00 16.1 8 Sudoeste 27 Oeste 0 -- -- 66
2020-11-07 13:00:00 15.8 4 Sur 28 Sur 0 -- -- 69
2020-11-07 12:00:00 14.8 8 Sur 28 Sudeste 0 -- -- 72
2020-11-07 11:00:00 13.9 8 Sudeste 20 Sudeste 0 -- -- 83
2020-11-07 10:00:00 11.4 5 Sur 16 Sudeste 0 -- -- 94
2020-11-07 09:00:00 9.5 2 Sur 10 Sur 0.2 -- -- 96
2020-11-07 08:00:00 9.8 3 Sudoeste 10 Oeste 0 -- -- 98
2020-11-07 07:00:00 9.3 2 Sur 9 Sudeste 0 -- -- 97
2020-11-07 06:00:00 9.4 0 Calma 4 Sudeste 0 -- -- 97
2020-11-07 05:00:00 10.2 0 Calma 6 Este 0 -- -- 96
2020-11-07 04:00:00 10.7 0 Calma 5 Sur 0 -- -- 96
2020-11-07 03:00:00 10.9 0 Calma 4 Este 0 -- -- 96
2020-11-07 02:00:00 11 0 Calma 10 Sudeste 0 -- -- 96
2020-11-07 01:00:00 11.1 0 Calma 9 Sudeste 0 -- -- 95
2020-11-07 00:00:00 11.2 2 Sudeste 13 Sudeste 0 -- -- 95
2020-11-06 23:00:00 11.4 6 Sudeste 17 Sudeste 0.8 -- -- 95
2020-11-06 22:00:00 11.7 3 Sudeste 18 Sur 3.6 -- -- 94
2020-11-06 21:00:00 12.2 2 Sur 12 Este 0.2 -- -- 92
2020-11-06 20:00:00 12.2 2 Sur 25 Sudeste 3.8 -- -- 91
2020-11-06 19:00:00 13.7 3 Sudeste 20 Oeste 0.6 -- -- 85
2020-11-06 18:00:00 15.6 2 Sur 10 Sudeste 0 -- -- 74
2020-11-06 17:00:00 16.8 3 Este 15 Sudeste 0 -- -- 68
2020-11-06 16:00:00 17.6 6 Sudeste 26 Sudeste 0 -- -- 61
2020-11-06 15:00:00 18 12 Sudeste 27 Sudeste 0 -- -- 58
2020-11-06 14:00:00 17.4 9 Sudeste 21 Sudeste 0 -- -- 62
2020-11-06 13:00:00 16.8 3 Sur 14 Sur 0 -- -- 69
2020-11-06 12:00:00 15.1 0 Calma 13 Sudeste 0.2 -- -- 82
2020-11-06 11:00:00 13.4 5 Sudeste 14 Sudeste 0 -- -- 87
2020-11-06 10:00:00 11.8 8 Sudeste 29 Sur 0 -- -- 90
2020-11-06 09:00:00 10.5 6 Sudeste 14 Sudeste 0 -- -- 89
2020-11-06 08:00:00 9.9 3 Noroeste 9 Norte 0 -- -- 86
2020-11-06 07:00:00 11.4 0 Calma 15 Sudeste 0 -- -- 80
2020-11-06 06:00:00 11.9 2 Sudeste 11 Sudeste 0 -- -- 80
2020-11-06 05:00:00 12.9 4 Este 16 Sudeste 0 -- -- 75
2020-11-06 04:00:00 13.3 12 Sudeste 26 Sudeste 0 -- -- 71
2020-11-06 03:00:00 12.7 8 Sudeste 18 Sudeste 0 -- -- 74
2020-11-06 02:00:00 13.4 10 Sudeste 21 Sudeste 0 -- -- 71
2020-11-06 01:00:00 12.9 6 Sudeste 15 Sudeste 0 -- -- 78
2020-11-06 00:00:00 10.9 5 Sur 13 Este 0 -- -- 82
2020-11-05 23:00:00 8.7 3 Noroeste 9 Oeste 0 -- -- 92
2020-11-05 22:00:00 8.4 0 Calma 6 Noroeste 0 -- -- 91
2020-11-05 21:00:00 9.3 3 Noroeste 8 Oeste 0 -- -- 89
2020-11-05 20:00:00 9.4 4 Noroeste 8 Noroeste 0 -- -- 88
2020-11-05 19:00:00 10 3 Norte 10 Oeste 0 -- -- 85
2020-11-05 18:00:00 11.2 2 Noroeste 10 Norte 0 -- -- 79
2020-11-05 17:00:00 11.8 4 Noroeste 14 Nordeste 0 -- -- 75
2020-11-05 16:00:00 12.2 7 Nordeste 17 Nordeste 0 -- -- 73
2020-11-05 15:00:00 11.7 6 Norte 21 Nordeste 0 -- -- 73
2020-11-05 14:00:00 10.8 7 Nordeste 16 Nordeste 0 -- -- 74
2020-11-05 13:00:00 11.1 3 Noroeste 22 Nordeste 0 -- -- 73
2020-11-05 12:00:00 10.2 10 Nordeste 23 Nordeste 0 -- -- 75
2020-11-05 11:00:00 9.1 6 Nordeste 14 Nordeste 0 -- -- 77
2020-11-05 10:00:00 9 3 Nordeste 14 Nordeste 0 -- -- 75
2020-11-05 09:00:00 8.1 4 Nordeste 23 Este 0 -- -- 77
2020-11-05 08:00:00 7.3 4 Nordeste 17 Nordeste 0 -- -- 79
2020-11-05 07:00:00 7.2 5 Nordeste 19 Nordeste 0 -- -- 78
2020-11-05 06:00:00 6.9 4 Nordeste 18 Este 0 -- -- 78
2020-11-05 05:00:00 7.3 4 Este 20 Este 0 -- -- 75
2020-11-05 04:00:00 7.6 8 Este 22 Este 0 -- -- 72
2020-11-05 03:00:00 7.6 4 Este 23 Nordeste 0 -- -- 72
2020-11-05 02:00:00 8.1 12 Este 27 Este 0 -- -- 69
2020-11-05 01:00:00 8.3 10 Este 27 Este 0 -- -- 68
2020-11-05 00:00:00 8.4 9 Este 28 Nordeste 0 -- -- 67